Regional Weather Roundup
Issued by NWS

Home | Current Version | Previous Version | Text Only | Print | Product List | Glossary Off
Versions: 1 2 3 4 5 6 7 8 9 10 11 12 13 14 15 16 17 18 19 20 21 22 23 24 25 26 27 28 29 30 31 32 33 34 35 36 37 38 39 40 41 42 43 44 45 46 47 48 49 50

000
ASUS43 KOAX 162210
RWRNE

WEATHER ROUNDUP FOR NEBRASKA
NATIONAL WEATHER SERVICE OMAHA NE
500 PM CDT WED APR 16 2014

NOTES: SATELLITE DATA IS BEING USED TO AUGMENT CLOUD COVER ABOVE
       12000 FEET.
       "FAIR" INDICATES FEW OR NO CLOUDS BELOW 12,000 FEET WITH NO
       SIGNIFICANT WEATHER AND/OR OBSTRUCTIONS TO VISIBILITY.

  * THESE STATIONS DO NOT REPORT WEATHER SUCH AS RAIN...SNOW OR FOG.

NEZ001>004-019>022-054>056-162300-
NEBRASKA PANHANDLE

CITY           SKY/WX    TMP DP  RH WIND       PRES   REMARKS
SCOTTSBLUFF    PTSUNNY   53  20  27 N17G29    29.95S
ALLIANCE       MOSUNNY   49  34  56 N17       29.95S
CHADRON        SUNNY     47  35  63 NE15      29.99S
KIMBALL        MOSUNNY   51  20  30 N20       29.94S
SIDNEY         PTSUNNY   51  29  42 NE16      29.95R
$$

NEZ057>060-069>072-079>082-162300-
SOUTHWEST NEBRASKA

CITY           SKY/WX    TMP DP  RH WIND       PRES   REMARKS
NORTH PLATTE   CLOUDY    49  33  54 N16G25    29.94R
IMPERIAL       MOSUNNY   54  33  45 N22       29.94S
LEXINGTON      MOSUNNY   54  35  48 N23G29    29.92R
MCCOOK         PTSUNNY   56  33  42 N17       29.92R
OGALLALA       PTSUNNY   52  33  48 N20G25    29.95S
$$

NEZ005>010-023>029-035>040-094-162300-
NORTH CENTRAL NEBRASKA

CITY           SKY/WX    TMP DP  RH WIND       PRES   REMARKS
VALENTINE      CLOUDY    35  28  75 N18       30.02R WCI  24
AINSWORTH      CLOUDY    35  29  79 N22G31    30.00R WCI  24
BROKEN BOW     MOSUNNY   45  32  60 N29       29.93R
O`NEILL        CLOUDY    36  27  69 N28G36    29.95R WCI  23
ORD            PTSUNNY   40  29  64 N26G36    29.93R WCI  29
THEDFORD       CLOUDY    40  32  72 N17G25    29.98R WCI  32
$$

NEZ041-046>049-061>064-073>077-083>087-162300-
SOUTH CENTRAL NEBRASKA

CITY           SKY/WX    TMP DP  RH WIND       PRES   REMARKS
GRAND ISLAND   CLOUDY    46  33  60 N30G38    29.91R
AURORA         CLOUDY    46  33  58 N25G32    29.90R
HASTINGS       MOSUNNY   51  34  52 N26G32    29.90R
HEBRON         SUNNY     57  36  45 NW26G33   29.84R
HOLDREGE       SUNNY     53  35  50 N21G29    29.90R
KEARNEY *      MOSUNNY   52  36  54 N23G29    29.91R
YORK           PTSUNNY   46  32  57 NW22G33   29.87R
$$

NEZ011>018-030>034-042>045-162300-
NORTHEAST NEBRASKA

CITY           SKY/WX    TMP DP  RH WIND       PRES   REMARKS
NORFOLK        CLOUDY    38  32  79 NW28G35   29.85R WCI  26
ALBION         CLOUDY    40  29  65 NW22G36   29.89R WCI  30
BLAIR          PTSUNNY   51  33  51 W23G36    29.75R
COLUMBUS *     CLOUDY    41  27  56 NW24G31   29.88R
FREMONT        CLOUDY    49  33  52 NW33      29.81R
TEKAMAH        CLOUDY    48  32  53 NW37G47   29.76R
$$

NEZ050>053-065>068-078-088>093-162300-
SOUTHEAST NEBRASKA

CITY           SKY/WX    TMP DP  RH WIND       PRES   REMARKS
LINCOLN        MOSUNNY   53  33  46 NW29G37   29.82R
OMAHA EPPLEY   PTSUNNY   59  34  39 NW29G41   29.73R
BEATRICE       MOSUNNY   62  37  38 NW29G39   29.78R
NEBRASKA CITY  PTSUNNY   69  32  25 W24G31    29.71S
PLATTSMOUTH    MOSUNNY   66  32  28 NW29G36   29.72R
$$

NEZ044-045-051>053-067-162300-
OMAHA AREA

CITY           SKY/WX    TMP DP  RH WIND       PRES   REMARKS
OMAHA EPPLEY   PTSUNNY   59  34  39 NW29G41   29.73R
BLAIR          PTSUNNY   51  33  51 W23G36    29.75R
FREMONT        CLOUDY    49  33  52 NW33      29.81R
MILLARD        SUNNY     56  35  44 NW26G36   29.75R
OFFUTT AFB     MOSUNNY   62  37  39 W30G36    29.72R
PLATTSMOUTH    MOSUNNY   66  32  28 NW29G36   29.72R
WAHOO          CLOUDY    50  32  49 NW31G40   29.80R
$$



USA.gov is the U.S. government's official web portal to all federal, state and local government web resources and services.